TimeEDT,TemperatureF,Dew PointF,Humidity,Sea Level PressureIn,VisibilityMPH,Wind Direction,Wind SpeedMPH,Gust SpeedMPH,PrecipitationIn,Events,Conditions,WindDirDegrees,DateUTC
12:53 AM,37.9,36.0,93,29.63,7.0,East,13.8,23.0,0.07,Rain,Light Rain,90,2013-04-12 04:53:00
1:53 AM,37.9,35.1,89,29.62,10.0,East,13.8,-,0.03,,Overcast,90,2013-04-12 05:53:00
2:53 AM,37.0,35.1,93,29.61,10.0,East,11.5,-,0.02,,Overcast,90,2013-04-12 06:53:00
3:53 AM,37.0,35.1,93,29.60,10.0,ESE,10.4,-,N/A,,Overcast,110,2013-04-12 07:53:00
4:53 AM,37.0,35.1,93,29.60,4.0,East,6.9,-,N/A,,Overcast,90,2013-04-12 08:53:00
5:29 AM,37.4,35.6,93,29.57,2.5,East,10.4,-,N/A,,Overcast,90,2013-04-12 09:29:00
5:50 AM,37.4,33.8,87,29.56,3.0,East,11.5,-,0.01,,Overcast,100,2013-04-12 09:50:00
5:53 AM,37.0,34.0,89,29.58,4.0,East,13.8,-,0.01,,Overcast,100,2013-04-12 09:53:00
6:36 AM,37.4,33.8,87,29.56,2.5,ESE,10.4,-,N/A,,Overcast,120,2013-04-12 10:36:00
6:53 AM,37.0,34.0,89,29.57,2.0,ESE,9.2,-,N/A,,Overcast,120,2013-04-12 10:53:00
7:24 AM,37.4,37.4,100,29.56,2.5,SE,4.6,-,0.01,,Overcast,140,2013-04-12 11:24:00
7:31 AM,37.4,35.6,93,29.56,2.0,SE,3.5,-,0.01,,Overcast,140,2013-04-12 11:31:00
7:39 AM,37.4,35.6,93,29.56,1.5,SE,3.5,-,0.01,,Overcast,140,2013-04-12 11:39:00
7:46 AM,37.4,35.6,93,29.56,1.2,SE,4.6,-,0.01,,Overcast,140,2013-04-12 11:46:00
7:53 AM,37.0,36.0,96,29.58,1.0,SSE,4.6,-,0.02,,Overcast,150,2013-04-12 11:53:00
8:15 AM,39.2,37.4,93,29.57,1.5,WSW,9.2,-,0.01,,Overcast,240,2013-04-12 12:15:00
8:26 AM,39.2,35.6,87,29.57,3.0,WSW,11.5,-,0.01,,Overcast,250,2013-04-12 12:26:00
8:40 AM,39.2,35.6,87,29.58,10.0,WSW,11.5,-,0.01,,Overcast,240,2013-04-12 12:40:00
8:53 AM,39.9,36.0,86,29.59,10.0,SW,12.7,-,0.01,,Overcast,230,2013-04-12 12:53:00
9:53 AM,39.9,37.0,89,29.60,10.0,SW,16.1,-,0.00,Rain,Light Rain,230,2013-04-12 13:53:00
10:30 AM,41.0,37.4,87,29.59,10.0,WSW,15.0,21.9,0.00,,Overcast,240,2013-04-12 14:30:00
10:39 AM,41.0,35.6,81,29.59,10.0,WSW,18.4,25.3,0.00,,Overcast,240,2013-04-12 14:39:00
10:53 AM,41.0,35.1,79,29.61,10.0,WSW,19.6,26.5,0.00,,Overcast,240,2013-04-12 14:53:00
11:53 AM,41.0,34.0,76,29.63,10.0,SW,21.9,26.5,N/A,,Overcast,230,2013-04-12 15:53:00
12:53 PM,41.0,33.1,73,29.64,10.0,SW,17.3,25.3,N/A,,Overcast,230,2013-04-12 16:53:00
1:53 PM,42.1,33.1,70,29.64,10.0,SW,23.0,33.4,N/A,,Overcast,220,2013-04-12 17:53:00
2:07 PM,42.8,35.6,76,29.63,7.0,SW,21.9,28.8,N/A,,Overcast,230,2013-04-12 18:07:00
2:53 PM,42.1,34.0,73,29.65,10.0,SW,17.3,25.3,0.00,,Overcast,220,2013-04-12 18:53:00
3:53 PM,43.0,33.1,68,29.67,10.0,SW,18.4,26.5,N/A,,Overcast,230,2013-04-12 19:53:00
4:53 PM,43.0,34.0,71,29.68,10.0,SW,21.9,28.8,N/A,,Overcast,230,2013-04-12 20:53:00
5:53 PM,43.0,34.0,71,29.70,10.0,SW,16.1,-,N/A,,Overcast,230,2013-04-12 21:53:00
6:53 PM,43.0,35.1,74,29.73,10.0,SW,16.1,21.9,N/A,,Overcast,230,2013-04-12 22:53:00
7:21 PM,42.8,37.4,81,29.72,3.0,WSW,15.0,-,N/A,,Haze,250,2013-04-12 23:21:00
7:29 PM,41.0,37.4,87,29.72,3.0,WSW,15.0,-,N/A,,Overcast,240,2013-04-12 23:29:00
7:53 PM,41.0,37.0,86,29.75,6.0,WSW,12.7,-,0.01,,Overcast,240,2013-04-12 23:53:00
8:36 PM,41.0,37.4,87,29.73,9.0,West,8.1,-,N/A,,Overcast,260,2013-04-13 00:36:00
8:53 PM,41.0,37.0,86,29.75,4.0,WSW,9.2,-,N/A,,Overcast,250,2013-04-13 00:53:00
9:00 PM,41.0,37.4,87,29.73,4.0,WSW,10.4,-,N/A,,Overcast,250,2013-04-13 01:00:00
9:53 PM,41.0,37.0,86,29.76,6.0,West,9.2,-,0.02,,Overcast,260,2013-04-13 01:53:00
10:43 PM,39.2,35.6,87,29.77,6.0,West,9.2,-,0.03,Rain,Light Rain,260,2013-04-13 02:43:00
10:53 PM,39.9,36.0,86,29.79,5.0,West,10.4,18.4,0.03,Rain,Light Rain,280,2013-04-13 02:53:00
11:05 PM,39.2,35.6,87,29.78,4.0,West,13.8,20.7,0.02,Rain,Light Rain,270,2013-04-13 03:05:00
11:53 PM,37.9,34.0,86,29.80,5.0,West,19.6,27.6,0.03,Rain,Light Rain,270,2013-04-13 03:53:00